LEMUR-2-ALEXANDER (43559 NORAD) Tracking and Keplerian Element Data

This shows tracking and keplerian element data for the satellite.

Feedback or suggestion? Click here.




ElementValue
Catalog43559
NameLEMUR-2-ALEXANDER
Epoch Orbit5501
Epoch Day193.67519371
Epoch Year2019
RAAN300.505
Inclination51.6421
Eccentricity0.0008128
Argument of Perigee154.9199
Mean Anonmoly205.2178
Mean Motion15.29525864
Decay Rate1.485E-05
L11 43559U 18046F 19193.67519371 .00001485 00000-0 63535-4 0 9991
L22 43559 51.6421 300.5050 0008128 154.9199 205.2178 15.29525864 55010

Live tracking and technical data element details for LEMUR-2-ALEXANDER (NORAD 43559). LEMUR-2-ALEXANDER can be tracked NOW for your location showing map with azimuth and elevation plus other details from your city location.

Track the satellite on the map from your city or location and see movement details for azimuth, elevation, latitude, longitude, range, height, and movement on the map or in text.







IsCatalogInMostPopularTable: catalog: 43559, numindb: 189
Update: records affected: 1



GetName: 43559 LEMUR-2-ALEXANDER

Hit Count: updated at: Mon, 15 Jul 2019 22:25:32 GMT